Location: Newark
(46.7000°N, 60.6000°W)
Time: 03:51:10
(UTC+00:00)

A-11 Canister half - Pass Details

Date: 01 November 2020
Orbit: 1525 x 1683 km, 47.3° (Epoch: 23 November)

Event Time Altitude Azimuth Distance (km) Brightness Sun altitude
Rises 01:24:15 0° 288° (WNW) 4,686 12.2 -46.3°
Reaches altitude 10° 01:28:31 10° 272° (W) 3,693 11.4 -46.9°
Enters shadow 01:33:15 18° 240° (WSW) 3,105 10.7 -47.6°
Maximum altitude 01:34:12 18° 233° (SW) 3,087 - -47.7°
Drops below altitude 10° 01:39:55 10° 194° (SSW) 3,698 - -48.5°
Sets 01:44:14 0° 177° (S) 4,693 - -49.0°
